Regional Weather Roundup
Issued by NWS Upton, NY

Current Version | Previous Version | Graphics & Text | Print | Product List | Glossary Off
Versions: 1 2 3 4 5 6 7 8 9 10 11 12 13 14 15 16 17 18 19 20 21 22 23 24 25 26 27 28 29 30 31 32 33 34 35 36 37 38 39 40 41 42 43 44 45 46 47 48 49 50

000
ASUS41 KOKX 071304
RWROKX

REGIONAL WEATHER ROUNDUP
NATIONAL WEATHER SERVICE NEW YORK NY
800 AM EST SUN FEB 07 2016

NOTE: "FAIR" INDICATES FEW OR NO CLOUDS BELOW 12,000 FEET WITH NO
SIGNIFICANT WEATHER AND/OR OBSTRUCTIONS TO VISIBILITY.

NYZ071-072-176-178-NJZ106-104-071400-
NEW YORK CITY METRO AREA


CITY           SKY/WX    TMP DP  RH WIND       PRES   REMARKS
CENTRAL PARK   CLEAR     35  21  56 CALM      30.21S
LAGUARDIA APRT PTCLDY    37  24  59 CALM      30.20S
KENNEDY INTL   PTCLDY    32  25  75 W5        30.21S WCI  27
NEWARK/LIBERTY PTCLDY    30  25  81 SW5       30.20S WCI  25
BRNX BOT. GARD   N/A     32  23  69 CALM      30.21R
TETERBORO      CLEAR     30  23  75 CALM      30.19S
$$

NYZ177-179-078>081-071400-
LONG ISLAND NEW YORK

CITY           SKY/WX    TMP DP  RH WIND       PRES   REMARKS
FARMINGDALE    CLEAR     22  22 100 CALM      30.20S
ISLIP          PTCLDY    23  22  96 CALM      30.18S
SHIRLEY        SUNNY     22  22 100 CALM      30.20F FOG
RIVERHEAD        N/A     27  21  80 CALM      30.22R
WESTHAMPTON    SUNNY     15  15 100 CALM      30.21F
EAST HAMPTON   FAIR      19  17  93 CALM      30.19F
MONTAUK POINT    N/A     35  27  72 S3        30.20F
$$

NYZ052-065-067-071400-
HUDSON VALLEY

CITY           SKY/WX    TMP DP  RH WIND       PRES   REMARKS
WHITE PLAINS   PTCLDY    25  20  81 NW6       30.15F WCI  18
NEWBURGH       CLEAR     25  21  86 CALM      30.16F
MONTGOMERY     CLEAR     23  19  85 CALM      30.15F
POUGHKEEPSIE   CLEAR     24  19  81 CALM      30.16F
ALBANY         CLEAR     28  19  69 S5        30.16R WCI  23
$$

NJZ001-105-106-008-010-013-015-019>022-104-071400-
NEW JERSEY

CITY           SKY/WX    TMP DP  RH WIND       PRES   REMARKS
NEWARK/LIBERTY PTCLDY    30  25  81 SW5       30.20S WCI  25
TETERBORO      CLEAR     30  23  75 CALM      30.19S
CALDWELL       CLEAR     26  22  84 CALM      30.19F
MORRISTOWN     CLEAR     23  21  93 CALM      30.19F
SOMERVILLE     CLEAR     20  17  88 CALM      30.18S
SUSSEX         CLEAR     22  19  89 S3        30.17S
ANDOVER          N/A     21  18  88 CALM      30.18R
TRENTON        CLEAR     27  23  85 CALM      30.17F
MILLVILLE      PTCLDY    22  20  92 CALM      30.19S
ATLANTIC CITY  CLOUDY    22  19  89 CALM      30.19R
WRIGHTSTOWN    CLEAR     23  23 100 CALM      30.17R
TOMS RIVER     CLEAR     19  12  73 CALM      30.20R
BELMAR         CLEAR     28  18  64 W5        30.18S WCI  23
$$

PAZ047>061-062-071-071400-
EASTERN PENNSYLVANIA

CITY           SKY/WX    TMP DP  RH WIND       PRES   REMARKS
PHILADELPHIA   PTCLDY    30  24  78 CALM      30.20S
ALLENTOWN      CLEAR     22  19  89 CALM      30.18F
SCRANTON       CLEAR     26  18  71 CALM      30.13S
$$

CTZ002-004>006-009-010-012-RIZ004-006-007-MAZ004-011-015-071400-
SOUTHERN NEW ENGLAND
 IN CT

CITY           SKY/WX    TMP DP  RH WIND       PRES   REMARKS
BRADLEY INTL   PTCLDY    19  16  88 NW3       30.17S
HARTFORD       CLEAR     24  22  91 S5        30.18F WCI  18
DANBURY        CLEAR     20  16  84 CALM      30.18F
WTRBRY/OXFORD  CLEAR     27  10  50 NW3       30.15F
BRIDGEPORT     CLEAR     29  23  78 N3        30.18F
MERIDEN        CLEAR     18  14  84 CALM      30.19F FOG
NEW HAVEN      CLEAR     24  23  96 N3        30.18F
CHESTER        FAIR      28  23  80 CALM      30.17F
GROTON         SUNNY     24  24 100 NE3       30.18F
WILLIMANTIC    SUNNY     16  13  88 CALM      30.19S

 IN RI

CITY           SKY/WX    TMP DP  RH WIND       PRES   REMARKS
PROVIDENCE     MOSUNNY   26  22  84 NE3       30.19R
BLOCK ISLAND   SUNNY     36  28  75 W6        30.17F WCI  31
WESTERLY       SUNNY     23  21  92 E3        30.19F

 IN MA

CITY           SKY/WX    TMP DP  RH WIND       PRES   REMARKS
BOSTON         MOSUNNY   30  23  74 SW6       30.18R WCI  24
WORCESTER      SUNNY     27  18  69 W8        30.12F WCI  19
WESTFIELD      CLEAR     18  15  88 CALM      30.17S
PROVINCETOWN   SUNNY     35  28  75 SW12      30.20R WCI  27
NANTUCKET      CLOUDY    37  29  72 W6        30.18F WCI  32
$$

ANZ330-335-338-340-345-350-353-355-071400-
COASTAL MARINE OBSERVATIONS


STATION/POSITION TIME  SKY/WX   TEMP    WIND        PRES    VSBY  WAVE
                                AIR SEA DIR/SP/G                  HT/PER
                 (UTC)          (F)     (DEG/KT/KT) (MB)    (MI)  (FT/S)
NY HARB ENTRANCE 1150            38 42  270/  8/ 10 1022.1          2/11
4S FIRE IS       NOT AVBL
20S FIRE ISLAND  1150            40 43  300/  8/  8 1022.2          2/ 4
GREAT SOUTH BAY  NOT AVBL
23SW MTP         1250            41 45  290/ 10/ 12 1021.9          3/ 5
HUDSON CANYON    1150            43 50              1021.9          2/10
KINGS POINT      1200            33 39     CALM     1021.9
EXECUTION ROCKS  NOT AVBL
CENTRAL LI SOUND 1200            37     270/  8/ 10   N/A           1/ 4
EASTERN LI SOUND 1200            38 42  250/  8/ 10   N/A
ROBBINS REEF     1200            32     270/  3/  4 1021.8
$$


>>>>>>>>>>>>>>>>>>>>>>>>>>>> KEY <<<<<<<<<<<<<<<<<<<<<<<<<<<
>                                                          <
>     SKY/WX - SKY CONDITION/PRESENT WEATHER               <
>     TMP    - TEMPERATURE IN FAHRENHEIT                   <
>     DP     - DEWPOINT IN FAHRENHEIT                      <
>     RH     - RELATIVE HUMIDITY IN PERCENT                <
>     WIND   - DIRECTION AND SPEED IN MPH                  <
>     PRES   - MEAN SEA LEVEL PRESSURE IN INCHES OF HG     <
>     WCI    - WIND CHILL INDEX                            <
>     VSB    - VISIBILITY IN MILES                         <
>     HX     - HEAT INDEX                                  <
>     TC     - TEMPERATURE IN CELSIUS                      <
>     VRB    - VARIABLE WIND DIRECTION                     <
>                                                          <
>>>>>>>>>>>>>>>>>>>>>>>>>>>> KEY <<<<<<<<<<<<<<<<<<<<<<<<<<<





USA.gov is the U.S. government's official web portal to all federal, state and local government web resources and services.